Year,Month,Day,Hour,Minute,Value (Times are PST for temperature in C)
2018,05,24,14,11,18.90
2018,05,24,14,12,18.80
2018,05,24,14,13,18.70
2018,05,24,14,14,18.70
2018,05,24,14,15,18.70
2018,05,24,14,16,18.60
2018,05,24,14,17,18.70
2018,05,24,14,18,18.70
2018,05,24,14,19,18.70
2018,05,24,14,20,18.70
2018,05,24,14,21,18.70
2018,05,24,14,22,18.70
2018,05,24,14,23,18.80
2018,05,24,14,24,18.70
2018,05,24,14,25,18.70
2018,05,24,14,26,18.70
2018,05,24,14,27,18.70
2018,05,24,14,28,18.70
2018,05,24,14,29,18.70
2018,05,24,14,30,18.70
2018,05,24,14,31,18.80
2018,05,24,14,32,18.70
2018,05,24,14,33,18.70
2018,05,24,14,34,18.60
2018,05,24,14,35,18.60
2018,05,24,14,36,18.50
2018,05,24,14,37,18.50
2018,05,24,14,38,18.40
2018,05,24,14,39,18.40
2018,05,24,14,40,18.30
2018,05,24,14,41,18.30
2018,05,24,14,42,18.20
2018,05,24,14,43,18.20
2018,05,24,14,44,18.10
2018,05,24,14,45,18.10
2018,05,24,14,46,18.10
2018,05,24,14,47,18.10
2018,05,24,14,48,18.10
2018,05,24,14,49,18.10
2018,05,24,14,50,18.10
2018,05,24,14,51,18.00
2018,05,24,14,52,18.00
2018,05,24,14,53,18.00
2018,05,24,14,54,18.00
2018,05,24,14,55,18.00
2018,05,24,14,56,18.00
2018,05,24,14,57,18.00
2018,05,24,14,58,18.00
2018,05,24,14,59,18.00
2018,05,24,15,00,18.00
2018,05,24,15,01,18.10
2018,05,24,15,02,18.10
2018,05,24,15,03,18.10
2018,05,24,15,04,18.10
2018,05,24,15,05,18.10
2018,05,24,15,06,18.10
2018,05,24,15,07,18.10
2018,05,24,15,08,18.10
2018,05,24,15,09,18.10
2018,05,24,15,10,18.10
2018,05,24,15,11,18.10
2018,05,24,15,12,18.20
2018,05,24,15,13,18.20
2018,05,24,15,14,18.20
2018,05,24,15,15,18.20
2018,05,24,15,16,18.20
2018,05,24,15,17,18.30
2018,05,24,15,18,18.30
2018,05,24,15,19,18.40
2018,05,24,15,20,18.40
2018,05,24,15,21,18.40
2018,05,24,15,22,18.40
2018,05,24,15,23,18.40
2018,05,24,15,24,18.40
2018,05,24,15,25,18.30
2018,05,24,15,26,18.30
2018,05,24,15,27,18.30
2018,05,24,15,28,18.30
2018,05,24,15,29,18.30
2018,05,24,15,30,18.30
2018,05,24,15,31,18.30
2018,05,24,15,32,18.30
2018,05,24,15,33,18.40
2018,05,24,15,34,18.40
2018,05,24,15,35,18.50
2018,05,24,15,36,18.60
2018,05,24,15,37,18.60
2018,05,24,15,38,18.70
2018,05,24,15,39,18.80
2018,05,24,15,40,19.00
2018,05,24,15,41,19.10
2018,05,24,15,42,19.20
2018,05,24,15,43,19.30
2018,05,24,15,44,19.40
2018,05,24,15,45,19.60
2018,05,24,15,46,19.70
2018,05,24,15,47,19.70
2018,05,24,15,48,19.70
2018,05,24,15,49,19.60
2018,05,24,15,50,19.50
2018,05,24,15,51,19.40
2018,05,24,15,52,19.40
2018,05,24,15,53,19.40
2018,05,24,15,54,19.40
2018,05,24,15,55,19.40
2018,05,24,15,56,19.50
2018,05,24,15,57,19.50
2018,05,24,15,58,19.60
2018,05,24,15,59,19.70
2018,05,24,16,00,19.70
2018,05,24,16,01,19.80
2018,05,24,16,02,19.80
2018,05,24,16,03,19.80
2018,05,24,16,04,19.80
2018,05,24,16,05,19.80
2018,05,24,16,06,19.90
2018,05,24,16,07,19.90
2018,05,24,16,08,19.90
2018,05,24,16,09,20.00
2018,05,24,16,10,20.00
2018,05,24,16,11,20.10
2018,05,24,16,12,20.00
2018,05,24,16,13,19.90
2018,05,24,16,14,19.80
2018,05,24,16,15,19.70
2018,05,24,16,16,19.70
2018,05,24,16,17,19.70
2018,05,24,16,18,19.60
2018,05,24,16,19,19.40
2018,05,24,16,20,19.40
2018,05,24,16,21,19.30
2018,05,24,16,22,19.20
2018,05,24,16,23,19.20
2018,05,24,16,24,19.20
2018,05,24,16,25,19.20
2018,05,24,16,26,19.20
2018,05,24,16,27,19.30
2018,05,24,16,28,19.30
2018,05,24,16,29,19.40
2018,05,24,16,30,19.50
2018,05,24,16,31,19.60
2018,05,24,16,32,19.60
2018,05,24,16,33,19.60
2018,05,24,16,34,19.60
2018,05,24,16,35,19.60
2018,05,24,16,36,19.50
2018,05,24,16,37,19.50
2018,05,24,16,38,19.60
2018,05,24,16,39,19.60
2018,05,24,16,40,19.60
2018,05,24,16,41,19.70
2018,05,24,16,42,19.80
2018,05,24,16,43,19.80
2018,05,24,16,44,19.90
2018,05,24,16,45,20.00
2018,05,24,16,46,20.10
2018,05,24,16,47,20.20
2018,05,24,16,48,20.20
2018,05,24,16,49,20.20
2018,05,24,16,50,20.20
2018,05,24,16,51,20.20
2018,05,24,16,52,20.20
2018,05,24,16,53,20.30
2018,05,24,16,54,20.30
2018,05,24,16,55,20.30
2018,05,24,16,56,20.30
2018,05,24,16,57,20.30
2018,05,24,16,58,20.30
2018,05,24,16,59,20.20
2018,05,24,17,00,20.10
2018,05,24,17,01,20.00
2018,05,24,17,02,19.90
2018,05,24,17,03,19.80
2018,05,24,17,04,19.80
2018,05,24,17,05,19.80
2018,05,24,17,06,19.90
2018,05,24,17,07,19.90
2018,05,24,17,08,20.00
2018,05,24,17,09,19.90
2018,05,24,17,10,19.90
2018,05,24,17,11,20.00
2018,05,24,17,12,19.90
2018,05,24,17,13,19.90
2018,05,24,17,14,19.90
2018,05,24,17,15,19.80
2018,05,24,17,16,19.80
2018,05,24,17,17,19.90
2018,05,24,17,18,19.90
2018,05,24,17,19,19.90
2018,05,24,17,20,20.00
2018,05,24,17,21,20.00
2018,05,24,17,22,19.90
2018,05,24,17,23,19.90
2018,05,24,17,24,19.90
2018,05,24,17,25,19.90
2018,05,24,17,26,19.90
2018,05,24,17,27,19.90
2018,05,24,17,28,19.90
2018,05,24,17,29,20.00
2018,05,24,17,30,20.00
2018,05,24,17,31,19.90
2018,05,24,17,32,19.90
2018,05,24,17,33,19.90
2018,05,24,17,34,20.00
2018,05,24,17,35,20.00
2018,05,24,17,36,20.00
2018,05,24,17,37,20.00
2018,05,24,17,38,20.00
2018,05,24,17,39,20.00
2018,05,24,17,40,20.00
2018,05,24,17,41,20.00
2018,05,24,17,42,20.00
2018,05,24,17,43,19.90
2018,05,24,17,44,19.90
2018,05,24,17,45,20.00
2018,05,24,17,46,20.00
2018,05,24,17,47,20.00
2018,05,24,17,48,19.90
2018,05,24,17,49,19.90
2018,05,24,17,50,19.90
2018,05,24,17,51,19.80
2018,05,24,17,52,19.80
2018,05,24,17,53,19.80
2018,05,24,17,54,19.80
2018,05,24,17,55,19.80
2018,05,24,17,56,19.80
2018,05,24,17,57,19.90
2018,05,24,17,58,19.90
2018,05,24,17,59,19.90
2018,05,24,18,00,19.90
2018,05,24,18,01,19.90
2018,05,24,18,02,19.90
2018,05,24,18,03,20.00
2018,05,24,18,04,19.90
2018,05,24,18,05,19.90
2018,05,24,18,06,19.90
2018,05,24,18,07,19.90
2018,05,24,18,08,19.80
2018,05,24,18,09,19.80
2018,05,24,18,10,19.80
2018,05,24,18,11,19.80
2018,05,24,18,12,19.80
2018,05,24,18,13,19.80
2018,05,24,18,14,19.70
2018,05,24,18,15,19.70
2018,05,24,18,16,19.60
2018,05,24,18,17,19.60
2018,05,24,18,18,19.60
2018,05,24,18,19,19.60
2018,05,24,18,20,19.50
2018,05,24,18,21,19.50
2018,05,24,18,22,19.50
2018,05,24,18,23,19.50
2018,05,24,18,24,19.50
2018,05,24,18,25,19.50
2018,05,24,18,26,19.40
2018,05,24,18,27,19.40
2018,05,24,18,28,19.40
2018,05,24,18,29,19.40
2018,05,24,18,30,19.40
2018,05,24,18,31,19.40
2018,05,24,18,32,19.40
2018,05,24,18,33,19.30
2018,05,24,18,34,19.30
2018,05,24,18,35,19.30
2018,05,24,18,36,19.20
2018,05,24,18,37,19.20
2018,05,24,18,38,19.20
2018,05,24,18,39,19.10
2018,05,24,18,40,19.10
2018,05,24,18,41,19.10
2018,05,24,18,42,19.00
2018,05,24,18,43,19.00
2018,05,24,18,44,18.90
2018,05,24,18,45,18.90
2018,05,24,18,46,18.90
2018,05,24,18,47,18.80
2018,05,24,18,48,18.80
2018,05,24,18,49,18.80
2018,05,24,18,50,18.80
2018,05,24,18,51,18.70
2018,05,24,18,52,18.70
2018,05,24,18,53,18.70
2018,05,24,18,54,18.70
2018,05,24,18,55,18.70
2018,05,24,18,56,18.60
2018,05,24,18,57,18.60
2018,05,24,18,58,18.60
2018,05,24,18,59,18.60
2018,05,24,19,00,18.60
2018,05,24,19,01,18.50
2018,05,24,19,02,18.60
2018,05,24,19,03,18.50
2018,05,24,19,04,18.50
2018,05,24,19,05,18.50
2018,05,24,19,06,18.50
2018,05,24,19,07,18.50
2018,05,24,19,08,18.50
2018,05,24,19,09,18.50
2018,05,24,19,10,18.50
2018,05,24,19,11,18.50
2018,05,24,19,12,18.60
2018,05,24,19,13,18.60
2018,05,24,19,14,18.60
2018,05,24,19,15,18.60
2018,05,24,19,16,18.60
2018,05,24,19,17,18.60
2018,05,24,19,18,18.60
2018,05,24,19,19,18.60
2018,05,24,19,20,18.60
2018,05,24,19,21,18.60
2018,05,24,19,22,18.60
2018,05,24,19,23,18.60
2018,05,24,19,24,18.70
2018,05,24,19,25,18.60
2018,05,24,19,26,18.70
2018,05,24,19,27,18.70
2018,05,24,19,28,18.70
2018,05,24,19,29,18.70
2018,05,24,19,30,18.70
2018,05,24,19,31,18.60
2018,05,24,19,32,18.60
2018,05,24,19,33,18.60
2018,05,24,19,34,18.60
2018,05,24,19,35,18.70
2018,05,24,19,36,18.60
2018,05,24,19,37,18.70
2018,05,24,19,38,18.60
2018,05,24,19,39,18.60
2018,05,24,19,40,18.60
2018,05,24,19,41,18.60
2018,05,24,19,42,18.60
2018,05,24,19,43,18.60
2018,05,24,19,44,18.60
2018,05,24,19,45,18.60
2018,05,24,19,46,18.60
2018,05,24,19,47,18.60
2018,05,24,19,48,18.50
2018,05,24,19,49,18.50
2018,05,24,19,50,18.50
2018,05,24,19,51,18.40
2018,05,24,19,52,18.40
2018,05,24,19,53,18.40
2018,05,24,19,54,18.40
2018,05,24,19,55,18.40
2018,05,24,19,56,18.40
2018,05,24,19,57,18.30
2018,05,24,19,58,18.30
2018,05,24,19,59,18.30
2018,05,24,20,00,18.30
2018,05,24,20,01,18.30
2018,05,24,20,02,18.30
2018,05,24,20,03,18.30
2018,05,24,20,04,18.30
2018,05,24,20,05,18.30
2018,05,24,20,06,18.30
2018,05,24,20,07,18.20
2018,05,24,20,08,18.20
2018,05,24,20,09,18.20
2018,05,24,20,10,18.20
2018,05,24,20,11,18.20
2018,05,24,20,12,18.20
2018,05,24,20,13,18.20
2018,05,24,20,14,18.20
2018,05,24,20,15,18.10
2018,05,24,20,16,18.20
2018,05,24,20,17,18.10
2018,05,24,20,18,18.10
2018,05,24,20,19,18.10
2018,05,24,20,20,18.10
2018,05,24,20,21,18.20
2018,05,24,20,22,18.10
2018,05,24,20,23,18.10
2018,05,24,20,24,18.10
2018,05,24,20,25,18.10
2018,05,24,20,26,18.00
2018,05,24,20,27,18.00
2018,05,24,20,28,18.00
2018,05,24,20,29,17.90
2018,05,24,20,30,17.90
2018,05,24,20,31,17.90
2018,05,24,20,32,17.90
2018,05,24,20,33,17.90
2018,05,24,20,34,17.90
2018,05,24,20,35,17.80
2018,05,24,20,36,17.80
2018,05,24,20,37,17.80
2018,05,24,20,38,17.80
2018,05,24,20,39,17.70
2018,05,24,20,40,17.70
2018,05,24,20,41,17.70
2018,05,24,20,42,17.60
2018,05,24,20,43,17.60
2018,05,24,20,44,17.60
2018,05,24,20,45,17.50
2018,05,24,20,46,17.50
2018,05,24,20,47,17.40
2018,05,24,20,48,17.40
2018,05,24,20,49,17.40
2018,05,24,20,50,17.30
2018,05,24,20,51,17.30
2018,05,24,20,52,17.30
2018,05,24,20,53,17.30
2018,05,24,20,54,17.20
2018,05,24,20,55,17.20
2018,05,24,20,56,17.20
2018,05,24,20,57,17.10
2018,05,24,20,58,17.10
2018,05,24,20,59,17.00
2018,05,24,21,00,17.00
2018,05,24,21,01,16.90
2018,05,24,21,02,16.90
2018,05,24,21,03,16.90
2018,05,24,21,04,16.80
2018,05,24,21,05,16.80
2018,05,24,21,06,16.70
2018,05,24,21,07,16.70
2018,05,24,21,08,16.70
2018,05,24,21,09,16.60
2018,05,24,21,10,16.60
2018,05,24,21,11,16.60
2018,05,24,21,12,16.50
2018,05,24,21,13,16.50
2018,05,24,21,14,16.40
2018,05,24,21,15,16.40
2018,05,24,21,16,16.40
2018,05,24,21,17,16.30
2018,05,24,21,18,16.30
2018,05,24,21,19,16.30
2018,05,24,21,20,16.20
2018,05,24,21,21,16.20
2018,05,24,21,22,16.20
2018,05,24,21,23,16.20
2018,05,24,21,24,16.20
2018,05,24,21,25,16.20
2018,05,24,21,26,16.20
2018,05,24,21,27,16.10
2018,05,24,21,28,16.10
2018,05,24,21,29,16.10
2018,05,24,21,30,16.10
2018,05,24,21,31,16.10
2018,05,24,21,32,16.10
2018,05,24,21,33,16.10
2018,05,24,21,34,16.10
2018,05,24,21,35,16.00
2018,05,24,21,36,16.00
2018,05,24,21,37,16.00
2018,05,24,21,38,16.00
2018,05,24,21,39,16.00
2018,05,24,21,40,16.00
2018,05,24,21,41,15.90
2018,05,24,21,42,15.90
2018,05,24,21,43,15.90
2018,05,24,21,44,15.90
2018,05,24,21,45,15.90
2018,05,24,21,46,15.90
2018,05,24,21,47,15.90
2018,05,24,21,48,15.90
2018,05,24,21,49,15.90
2018,05,24,21,50,15.90
2018,05,24,21,51,15.90
2018,05,24,21,52,15.90
2018,05,24,21,53,15.90
2018,05,24,21,54,15.90
2018,05,24,21,55,15.90
2018,05,24,21,56,15.80
2018,05,24,21,57,15.80
2018,05,24,21,58,15.80
2018,05,24,21,59,15.80
2018,05,24,22,00,15.80
2018,05,24,22,01,15.80
2018,05,24,22,02,15.80
2018,05,24,22,03,15.80
2018,05,24,22,04,15.80
2018,05,24,22,05,15.70
2018,05,24,22,06,15.70
2018,05,24,22,07,15.70
2018,05,24,22,08,15.70
2018,05,24,22,09,15.70
2018,05,24,22,10,15.70
2018,05,24,22,11,15.60
2018,05,24,22,12,15.60
2018,05,24,22,13,15.60
2018,05,24,22,14,15.60
2018,05,24,22,15,15.60
2018,05,24,22,16,15.60
2018,05,24,22,17,15.60
2018,05,24,22,18,15.50
2018,05,24,22,19,15.50
2018,05,24,22,20,15.50
2018,05,24,22,21,15.40
2018,05,24,22,22,15.40
2018,05,24,22,23,15.40
2018,05,24,22,24,15.30
2018,05,24,22,25,15.30
2018,05,24,22,26,15.30
2018,05,24,22,27,15.20
2018,05,24,22,28,15.20
2018,05,24,22,29,15.20
2018,05,24,22,30,15.10
2018,05,24,22,31,15.10
2018,05,24,22,32,15.10
2018,05,24,22,33,15.10
2018,05,24,22,34,15.00
2018,05,24,22,35,15.00
2018,05,24,22,36,14.90
2018,05,24,22,37,14.90
2018,05,24,22,38,14.90
2018,05,24,22,39,14.90
2018,05,24,22,40,14.90
2018,05,24,22,41,14.90
2018,05,24,22,42,14.80
2018,05,24,22,43,14.80
2018,05,24,22,44,14.80
2018,05,24,22,45,14.80
2018,05,24,22,46,14.70
2018,05,24,22,47,14.70
2018,05,24,22,48,14.70
2018,05,24,22,49,14.70
2018,05,24,22,50,14.70
2018,05,24,22,51,14.70
2018,05,24,22,52,14.60
2018,05,24,22,53,14.60
2018,05,24,22,54,14.60
2018,05,24,22,55,14.60
2018,05,24,22,56,14.60
2018,05,24,22,57,14.60
2018,05,24,22,58,14.60
2018,05,24,22,59,14.60
2018,05,24,23,00,14.60
2018,05,24,23,01,14.60
2018,05,24,23,02,14.60
2018,05,24,23,03,14.60
2018,05,24,23,04,14.60
2018,05,24,23,05,14.60
2018,05,24,23,06,14.60
2018,05,24,23,07,14.50
2018,05,24,23,08,14.50
2018,05,24,23,09,14.50
2018,05,24,23,10,14.50
2018,05,24,23,11,14.50
2018,05,24,23,12,14.50
2018,05,24,23,13,14.50
2018,05,24,23,14,14.50
2018,05,24,23,15,14.50
2018,05,24,23,16,14.50
2018,05,24,23,17,14.50
2018,05,24,23,18,14.50
2018,05,24,23,19,14.50
2018,05,24,23,20,14.50
2018,05,24,23,21,14.50
2018,05,24,23,22,14.50
2018,05,24,23,23,14.50
2018,05,24,23,24,14.60
2018,05,24,23,25,14.60
2018,05,24,23,26,14.60
2018,05,24,23,27,14.60
2018,05,24,23,28,14.60
2018,05,24,23,29,14.60
2018,05,24,23,30,14.70
2018,05,24,23,31,14.70
2018,05,24,23,32,14.70
2018,05,24,23,33,14.70
2018,05,24,23,34,14.70
2018,05,24,23,35,14.70
2018,05,24,23,36,14.70
2018,05,24,23,37,14.70
2018,05,24,23,38,14.80
2018,05,24,23,39,14.80
2018,05,24,23,40,14.80
2018,05,24,23,41,14.80
2018,05,24,23,42,14.80
2018,05,24,23,43,14.80
2018,05,24,23,44,14.80
2018,05,24,23,45,14.80
2018,05,24,23,46,14.80
2018,05,24,23,47,14.80
2018,05,24,23,48,14.80
2018,05,24,23,49,14.80
2018,05,24,23,50,14.80
2018,05,24,23,51,14.80
2018,05,24,23,52,14.80
2018,05,24,23,53,14.80
2018,05,24,23,54,14.80
2018,05,24,23,55,14.80
2018,05,24,23,56,14.80
2018,05,24,23,57,14.80
2018,05,24,23,58,14.80
2018,05,24,23,59,14.80
